Tracking 35275 objects as of 8-Sep-2026
HD Live streaming from Space Station
objects crossing your sky now

COSMOS 1813 DEB


COSMOS 1813 DEB is no longer on orbit


NORAD ID: 17417
Int'l Code: 1987-004Y
Launch date: January 15, 1987
Source: Commonwealth of Independent States (former USSR) (CIS)
Launch site: PLESETSK MISSILE AND SPACE COMPLEX (PKMTR)
Decay date: 1988-01-18

Note: This is SATELLITE DEBRIS
Your satellite tracking list
Your tracking list is empty




NASA's NSSDC Master Catalog

Two Line Element Set (TLE):
1 17417U 87004  Y 88018.54293411  .14463413 +81293-5 +26682-2 0  9993
2 17417 072.7828 170.1111 0015457 010.5207 002.5866 16.31728555053823
Source of the keplerian elements: AFSPC